Tracking 18624 objects as of 30-April-2017
HD Live streaming from Space Station
objects crossing your sky now

COSMOS 970 DEB

Track COSMOS 970 DEB now!
10-day predictions


NORAD ID: 10563
Int'l Code: 1977-121E
Perigee: 871.6 km
Apogee: 1,026.8 km
Inclination: 65.8 °
Period: 103.9 minutes
Semi major axis: 7320 km
RCS: 0.0231 m2 (small)
Launch date: December 21, 1977
Source: Commonwealth of Independent States (former USSR) (CIS)
Launch site: TYURATAM MISSILE AND SPACE COMPLEX (TTMTR)

Note: This is SATELLITE DEBRIS
Your satellite tracking list
Your tracking list is empty





NASA's NSSDC Master Catalog

Two Line Element Set (TLE):
1 10563U 77121E   17118.41784595 +.00000368 +00000-0 +37370-3 0  9994
2 10563 065.8479 143.6262 0105998 193.6905 166.1285 13.86186883974433
Source of the keplerian elements: AFSPC